Time,TemperatureF,DewpointF,PressureIn,WindDirection,WindDirectionDegrees,WindSpeedMPH,WindSpeedGustMPH,Humidity,HourlyPrecipIn,Conditions,Clouds,dailyrainin,SoftwareType,DateUTC
2013-09-21 01:00:00,49.0,47.0,-100.00,North,-999,-999.0,-999.0,94,0.06,,,-99.99,,2013-09-21 08:00:00,
2013-09-21 01:52:00,49.0,47.0,-100.00,North,-999,-999.0,-999.0,94,0.06,,,-99.99,,2013-09-21 08:52:00,
2013-09-21 03:00:00,49.0,47.0,-100.00,North,-999,-999.0,-999.0,94,0.00,,,-99.99,,2013-09-21 10:00:00,
2013-09-21 03:52:00,49.0,47.0,-100.00,North,-999,-999.0,-999.0,94,0.00,,,-99.99,,2013-09-21 10:52:00,
2013-09-21 04:00:00,48.0,46.0,-100.00,North,-999,-999.0,-999.0,94,0.00,,,-99.99,,2013-09-21 11:00:00,
2013-09-21 04:52:00,48.0,46.0,-100.00,North,-999,-999.0,-999.0,94,0.00,,,-99.99,,2013-09-21 11:52:00,
2013-09-21 06:00:00,47.0,45.0,-100.00,North,-999,-999.0,-999.0,94,0.01,,,-99.99,,2013-09-21 13:00:00,
2013-09-21 06:52:00,47.0,45.0,-100.00,North,-999,-999.0,-999.0,94,0.01,,,-99.99,,2013-09-21 13:52:00,
2013-09-21 07:00:00,48.0,46.0,-100.00,North,-999,-999.0,-999.0,94,0.06,,,-99.99,,2013-09-21 14:00:00,
2013-09-21 07:52:00,48.0,46.0,-100.00,North,-999,-999.0,-999.0,94,0.06,,,-99.99,,2013-09-21 14:52:00,
2013-09-21 08:00:00,47.0,45.0,-100.00,North,-999,-999.0,-999.0,94,0.01,,,-99.99,,2013-09-21 15:00:00,
2013-09-21 08:55:00,47.0,45.0,-100.00,North,-999,-999.0,-999.0,94,0.01,,,-99.99,,2013-09-21 15:55:00,
2013-09-21 09:00:00,46.0,44.0,-100.00,North,-999,-999.0,-999.0,94,0.04,,,-99.99,,2013-09-21 16:00:00,
2013-09-21 09:54:00,46.0,44.0,-100.00,North,-999,-999.0,-999.0,94,0.04,,,-99.99,,2013-09-21 16:54:00,
2013-09-21 10:00:00,47.0,45.0,-100.00,North,-999,-999.0,-999.0,93,0.00,,,-99.99,,2013-09-21 17:00:00,
2013-09-21 10:52:00,47.0,45.0,-100.00,North,-999,-999.0,-999.0,93,0.00,,,-99.99,,2013-09-21 17:52:00,
2013-09-21 12:00:00,50.0,46.0,-100.00,North,-999,-999.0,-999.0,86,0.00,,,-99.99,,2013-09-21 19:00:00,
2013-09-21 12:52:00,50.0,46.0,-100.00,North,-999,-999.0,-999.0,86,0.00,,,-99.99,,2013-09-21 19:52:00,
2013-09-21 15:00:00,51.0,44.0,-100.00,North,-999,-999.0,-999.0,77,0.00,,,-99.99,,2013-09-21 22:00:00,
2013-09-21 15:53:00,51.0,44.0,-100.00,North,-999,-999.0,-999.0,77,0.00,,,-99.99,,2013-09-21 22:53:00,
2013-09-21 16:00:00,53.0,43.0,-100.00,North,-999,-999.0,-999.0,69,0.00,,,-99.99,,2013-09-21 23:00:00,
2013-09-21 16:53:00,53.0,43.0,-100.00,North,-999,-999.0,-999.0,69,0.00,,,-99.99,,2013-09-21 23:53:00,
2013-09-21 20:54:00,45.0,41.0,-100.00,North,-999,-999.0,-999.0,87,0.00,,,-99.99,,2013-09-22 03:54:00,
2013-09-21 21:00:00,46.0,44.0,-100.00,North,-999,-999.0,-999.0,91,0.00,,,-99.99,,2013-09-22 04:00:00,
2013-09-21 21:54:00,46.0,44.0,-100.00,North,-999,-999.0,-999.0,91,0.00,,,-99.99,,2013-09-22 04:54:00,
2013-09-21 22:00:00,45.0,43.0,-100.00,North,-999,-999.0,-999.0,91,0.00,,,-99.99,,2013-09-22 05:00:00,
2013-09-21 22:53:00,45.0,43.0,-100.00,North,-999,-999.0,-999.0,91,0.00,,,-99.99,,2013-09-22 05:53:00,
2013-09-21 23:00:00,46.0,44.0,-100.00,North,-999,-999.0,-999.0,92,0.00,,,-99.99,,2013-09-22 06:00:00,
2013-09-21 23:52:00,46.0,44.0,-100.00,North,-999,-999.0,-999.0,92,0.00,,,-99.99,,2013-09-22 06:52:00,